Regional Weather Roundup
Issued by NWS Green Bay, WI

Home | Current Version | Previous Version | Graphics & Text | Print | Product List | Glossary Off
Versions: 1 2 3 4 5 6 7 8 9 10 11 12 13 14 15 16 17 18 19 20 21 22 23 24 25 26 27 28 29 30 31 32 33 34 35 36 37 38 39 40 41 42 43 44 45 46 47 48 49 50

000
ASUS43 KGRB 060011
RWRGRB

NORTH-CENTRAL AND NORTHEAST WISCONSIN REGIONAL WEATHER ROUNDUP
NATIONAL WEATHER SERVICE GREEN BAY WI
600 PM CST MON DEC 05 2016

WIZ005-009-010>012-018-019-060100-
NORTH CENTRAL WISCONSIN

CITY           SKY/WX    TMP DP  RH WIND       PRES   REMARKS
IRONWOOD       CLOUDY    36  30  79 S8        29.81S
MANITOWISH WTR CLOUDY    33  32  99 S8        29.83R
ARBOR VITAE    PTCLDY    37  34  90 S10G17    29.85R
EAGLE RIVER    PTCLDY    33  29  86 S8        29.85R
LAND O LAKES   CLOUDY    34  31  87 S7        29.86R
RHINELANDER    LGT SNOW  33  31  92 S9        29.87R FOG
PHILLIPS       CLOUDY    32  32  98 SE6       29.80F
ANTIGO         CLOUDY    31  31 100 S7        29.90S FOG
TOMAHAWK       CLOUDY    32  30  92 SE3       29.86S
MERRILL        CLOUDY    33  32  98 SE5       29.88S
$$

WIZ013-073-060100-
NORTHEAST WISCONSIN

CITY           SKY/WX    TMP DP  RH WIND       PRES   REMARKS
IRON MOUNTAIN  CLOUDY    33  28  81 S9        29.89R
MARINETTE      CLOUDY    35  32  88 SW10      29.96S
OCONTO         CLOUDY    33  32  93 CALM      29.95S
$$

WIZ017-030-035>037-045-060100-
CENTRAL WISCONSIN

CITY           SKY/WX    TMP DP  RH WIND       PRES   REMARKS
MEDFORD        CLOUDY    32  31  94 SE9       29.82F FOG
WAUSAU         CLOUDY    33  31  92 SE7       29.87F
MOSINEE        CLOUDY    32  32 100 SE9       29.88F FOG
MARSHFIELD     CLOUDY    33  31  92 SE12      29.84F
WISC RAPIDS    MOCLDY    33  33 100 SE7       29.89F
STEVENS POINT  CLOUDY    31  31 100 SE5       29.89F FOG
WAUPACA        CLOUDY    35  32  90 CALM      29.94S FOG
SHAWANO        CLOUDY    35  32  90 CALM      29.94F
CLINTONVILLE   CLOUDY    32  32 100 S6        29.94F FOG
WAUTOMA        CLOUDY    33  31  92 SE8       29.93F
$$

WIZ038-039-048-051-060100-
FOX VALLEY

CITY           SKY/WX    TMP DP  RH WIND       PRES   REMARKS
NWS GREEN BAY  CLOUDY    35  34  96 S7        29.96S
APPLETON       CLOUDY    32  32 100 S9        29.93S FOG
OSHKOSH        CLOUDY    33  30  88 S9        29.95R
FOND DU LAC    CLOUDY    33  29  85 S7        29.95S
$$

WIZ022-050-052-060100-
EAST CENTRAL WISCONSIN

CITY           SKY/WX    TMP DP  RH WIND       PRES   REMARKS
EPHRAIM        CLOUDY    34  32  94 SW7       29.94F
WASHINGTON ISL CLOUDY    35  32  88 SW9G17    29.95S
STURGEON BAY   MOCLDY    33  31  92 S7        29.97S
MANITOWOC      CLOUDY    34  32  92 S6        29.98R
SHEBOYGAN      CLOUDY    32  31  96 S8        29.96S FOG
$$

LMZ563-521-522-541>543-060100-
LAKESHORE

STATION/POSITION TIME  TEMP    WIND        PRES    VSBY  WAVE
                       AIR SEA DIR/SP/G                  HT/PER
                 (UTC) (F)     (DEG/KT/KT) (MB)    (MI)  (FT/S)
SHEBOYGAN LKSHOR 0000   34     210/  9/ 10 1015.4F
KEWAUNEE LKSHORE 2348   34     210/ 10/ 14 1014.7R
ALGOMA MARINA    2306          240/ 13/ 17   N/A
NORTHPORT PIER   2340   35     180/  2/ 10 1014.6R
SISTER BAY LKSHO 2253   35     210/ 10/ 12   N/A
CHAMBERS ISLAND  2330   37     190/  5/ 12 1013.9S
MENOMINEE LKSHOR 2348   36     210/  9/ 26 1013.6S
$$




USA.gov is the U.S. government's official web portal to all federal, state and local government web resources and services.